Time,TemperatureF,DewpointF,PressureIn,WindDirection,WindDirectionDegrees,WindSpeedMPH,WindSpeedGustMPH,Humidity,HourlyPrecipIn,Conditions,Clouds,dailyrainin,SoftwareType,DateUTC
2013-03-28 00:14:00,32.7,26.3,30.18,NE,45,3.0,6.0,77,0.00,CLR,,0.00,WeatherDisplay:10.37,2013-03-28 00:14:00,
2013-03-28 00:29:00,32.7,26.3,30.18,NE,52,5.0,6.0,77,0.00,CLR,,0.00,WeatherDisplay:10.37,2013-03-28 00:29:00,
2013-03-28 00:44:00,32.9,26.8,30.18,NE,50,2.0,4.0,78,0.00,CLR,,0.00,WeatherDisplay:10.37,2013-03-28 00:44:00,
2013-03-28 00:59:00,32.9,26.8,30.18,NE,45,5.0,5.0,78,0.00,CLR,,0.00,WeatherDisplay:10.37,2013-03-28 00:59:00,
2013-03-28 01:14:00,33.0,27.2,30.18,NE,52,3.0,8.0,79,0.00,CLR,,0.00,WeatherDisplay:10.37,2013-03-28 01:14:00,
2013-03-28 01:29:00,33.1,27.3,30.18,NE,53,6.0,6.0,79,0.00,CLR,,0.00,WeatherDisplay:10.37,2013-03-28 01:29:00,
2013-03-28 01:44:00,33.1,27.3,30.18,East,80,5.0,6.0,79,0.00,CLR,,0.00,WeatherDisplay:10.37,2013-03-28 01:44:00,
2013-03-28 01:59:00,33.1,27.6,30.18,NE,54,7.0,7.0,80,0.00,CLR,,0.00,WeatherDisplay:10.37,2013-03-28 01:59:00,
2013-03-28 02:14:00,33.1,27.6,30.15,NE,51,6.0,7.0,80,0.00,CLR,,0.00,WeatherDisplay:10.37,2013-03-28 02:14:00,
2013-03-28 02:29:00,33.1,27.6,30.18,ENE,61,2.0,7.0,80,0.00,CLR,,0.00,WeatherDisplay:10.37,2013-03-28 02:29:00,
2013-03-28 02:44:00,33.1,27.6,30.18,ENE,70,6.0,6.0,80,0.00,CLR,,0.00,WeatherDisplay:10.37,2013-03-28 02:44:00,
2013-03-28 02:59:00,33.3,27.5,30.15,ENE,59,6.0,9.0,79,0.00,CLR,,0.00,WeatherDisplay:10.37,2013-03-28 02:59:00,
2013-03-28 03:14:00,33.3,27.5,30.15,NE,52,6.0,11.0,79,0.00,CLR,,0.00,WeatherDisplay:10.37,2013-03-28 03:14:00,
2013-03-28 03:29:00,33.3,27.5,30.15,NE,53,5.0,8.0,79,0.00,CLR,,0.00,WeatherDisplay:10.37,2013-03-28 03:29:00,
2013-03-28 03:44:00,33.3,27.5,30.15,ENE,62,3.0,6.0,79,0.00,CLR,,0.00,WeatherDisplay:10.37,2013-03-28 03:44:00,
2013-03-28 03:59:00,33.3,27.5,30.15,NE,52,3.0,4.0,79,0.00,CLR,,0.00,WeatherDisplay:10.37,2013-03-28 03:59:00,
2013-03-28 04:14:00,33.3,27.5,30.15,NE,43,3.0,5.0,79,0.00,CLR,,0.00,WeatherDisplay:10.37,2013-03-28 04:14:00,
2013-03-28 04:29:00,33.3,27.5,30.15,ENE,61,3.0,5.0,79,0.00,CLR,,0.00,WeatherDisplay:10.37,2013-03-28 04:29:00,
2013-03-28 04:44:00,33.3,27.5,30.18,East,89,5.0,6.0,79,0.00,CLR,,0.00,WeatherDisplay:10.37,2013-03-28 04:44:00,
2013-03-28 04:59:00,33.1,27.0,30.15,NE,49,5.0,7.0,78,0.00,CLR,,0.00,WeatherDisplay:10.37,2013-03-28 04:59:00,
2013-03-28 05:14:00,33.1,27.0,30.15,NE,52,3.0,6.0,78,0.00,CLR,,0.00,WeatherDisplay:10.37,2013-03-28 05:14:00,
2013-03-28 05:29:00,33.1,27.3,30.15,NE,52,3.0,6.0,79,0.00,CLR,,0.00,WeatherDisplay:10.37,2013-03-28 05:29:00,
2013-03-28 05:44:00,32.9,26.8,30.15,ENE,67,5.0,6.0,78,0.00,CLR,,0.00,WeatherDisplay:10.37,2013-03-28 05:44:00,
2013-03-28 05:59:00,32.9,27.1,30.15,ENE,78,2.0,5.0,79,0.00,CLR,,0.00,WeatherDisplay:10.37,2013-03-28 05:59:00,
2013-03-28 06:14:00,32.7,26.6,30.15,ENE,77,3.0,4.0,78,0.00,CLR,,0.00,WeatherDisplay:10.37,2013-03-28 06:14:00,
2013-03-28 06:29:00,32.7,26.6,30.18,East,94,2.0,3.0,78,0.00,CLR,,0.00,WeatherDisplay:10.37,2013-03-28 06:29:00,
2013-03-28 06:44:00,32.7,26.6,30.18,East,85,5.0,7.0,78,0.00,CLR,,0.00,WeatherDisplay:10.37,2013-03-28 06:44:00,
2013-03-28 06:59:00,32.7,26.3,30.15,ENE,70,1.0,8.0,77,0.00,CLR,,0.00,WeatherDisplay:10.37,2013-03-28 06:59:00,
2013-03-28 07:14:00,32.7,26.3,30.15,ENE,74,6.0,7.0,77,0.00,CLR,,0.00,WeatherDisplay:10.37,2013-03-28 07:14:00,
2013-03-28 07:29:00,32.9,26.5,30.15,ENE,72,6.0,7.0,77,0.00,CLR,,0.00,WeatherDisplay:10.37,2013-03-28 07:29:00,
2013-03-28 07:44:00,33.1,26.7,30.15,ENE,64,9.0,10.0,77,0.00,CLR,,0.00,WeatherDisplay:10.37,2013-03-28 07:44:00,
2013-03-28 07:59:00,33.3,26.5,30.18,East,90,3.0,10.0,76,0.00,CLR,,0.00,WeatherDisplay:10.37,2013-03-28 07:59:00,
2013-03-28 08:14:00,33.3,26.2,30.18,ENE,73,6.0,9.0,75,0.00,CLR,,0.00,WeatherDisplay:10.37,2013-03-28 08:14:00,
2013-03-28 08:29:00,33.3,26.2,30.18,East,91,7.0,7.0,75,0.00,CLR,,0.00,WeatherDisplay:10.37,2013-03-28 08:29:00,
2013-03-28 08:44:00,33.3,26.5,30.18,NE,48,3.0,8.0,76,0.00,CLR,,0.00,WeatherDisplay:10.37,2013-03-28 08:44:00,
2013-03-28 08:59:00,33.8,27.4,30.18,ENE,71,6.0,6.0,77,0.00,CLR,,0.00,WeatherDisplay:10.37,2013-03-28 08:59:00,
2013-03-28 09:14:00,34.0,27.8,30.18,NE,48,6.0,8.0,78,0.00,CLR,,0.00,WeatherDisplay:10.37,2013-03-28 09:14:00,
2013-03-28 09:29:00,34.5,28.4,30.18,ENE,77,5.0,6.0,78,0.00,CLR,,0.00,WeatherDisplay:10.37,2013-03-28 09:29:00,
2013-03-28 09:44:00,35.1,29.3,30.18,ENE,74,5.0,10.0,79,0.00,CLR,,0.00,WeatherDisplay:10.37,2013-03-28 09:44:00,
2013-03-28 09:59:00,36.1,30.3,30.18,ENE,57,2.0,6.0,79,0.00,CLR,,0.00,WeatherDisplay:10.37,2013-03-28 09:59:00,
2013-03-28 10:14:00,36.1,29.6,30.18,ENE,74,6.0,8.0,77,0.00,CLR,,0.00,WeatherDisplay:10.37,2013-03-28 10:14:00,
2013-03-28 10:29:00,36.1,29.0,30.18,NE,52,8.0,9.0,75,0.00,CLR,,0.00,WeatherDisplay:10.37,2013-03-28 10:29:00,
2013-03-28 10:44:00,36.2,28.4,30.18,SE,125,2.0,9.0,73,0.00,CLR,,0.00,WeatherDisplay:10.37,2013-03-28 10:44:00,
2013-03-28 10:59:00,36.5,28.0,30.18,East,84,3.0,5.0,71,0.00,CLR,,0.00,WeatherDisplay:10.37,2013-03-28 10:59:00,
2013-03-28 11:14:00,37.0,27.1,30.18,ENE,73,7.0,7.0,67,0.00,CLR,,0.00,WeatherDisplay:10.37,2013-03-28 11:14:00,
2013-03-28 11:29:00,37.9,26.1,30.18,East,85,2.0,10.0,62,0.00,CLR,,0.00,WeatherDisplay:10.37,2013-03-28 11:29:00,
2013-03-28 11:44:00,38.3,24.8,30.18,East,90,6.0,10.0,58,0.00,CLR,,0.00,WeatherDisplay:10.37,2013-03-28 11:44:00,
2013-03-28 11:59:00,38.7,23.9,30.18,East,86,7.0,10.0,55,0.00,CLR,,0.00,WeatherDisplay:10.37,2013-03-28 11:59:00,
2013-03-28 12:14:00,38.8,23.6,30.18,East,90,3.0,10.0,54,0.00,CLR,,0.00,WeatherDisplay:10.37,2013-03-28 12:14:00,
2013-03-28 12:29:00,39.2,23.5,30.18,ENE,73,3.0,9.0,53,0.00,CLR,,0.00,WeatherDisplay:10.37,2013-03-28 12:29:00,
2013-03-28 12:44:00,39.1,25.1,30.18,NNE,25,7.0,10.0,57,0.00,CLR,,0.00,WeatherDisplay:10.37,2013-03-28 12:44:00,
2013-03-28 12:59:00,39.9,24.6,30.18,SE,135,13.0,13.0,54,0.00,CLR,,0.00,WeatherDisplay:10.37,2013-03-28 12:59:00,
2013-03-28 13:14:00,40.1,24.3,30.18,East,83,7.0,13.0,53,0.00,CLR,,0.00,WeatherDisplay:10.37,2013-03-28 13:14:00,
2013-03-28 13:29:00,40.1,23.9,30.15,East,91,7.0,15.0,52,0.00,CLR,,0.00,WeatherDisplay:10.37,2013-03-28 13:29:00,
2013-03-28 13:44:00,39.4,22.7,30.15,East,101,8.0,10.0,51,0.00,CLR,,0.00,WeatherDisplay:10.37,2013-03-28 13:44:00,
2013-03-28 13:59:00,39.7,22.6,30.15,ESE,122,9.0,13.0,50,0.00,CLR,,0.00,WeatherDisplay:10.37,2013-03-28 13:59:00,
2013-03-28 14:14:00,40.3,23.1,30.15,East,93,10.0,12.0,50,0.00,CLR,,0.00,WeatherDisplay:10.37,2013-03-28 14:14:00,
2013-03-28 14:29:00,40.6,23.4,30.15,East,89,6.0,13.0,50,0.00,CLR,,0.00,WeatherDisplay:10.37,2013-03-28 14:29:00,
2013-03-28 14:44:00,40.6,22.9,30.15,East,86,8.0,10.0,49,0.00,CLR,,0.00,WeatherDisplay:10.37,2013-03-28 14:44:00,
2013-03-28 14:59:00,40.5,22.8,30.15,ESE,108,9.0,13.0,49,0.00,CLR,,0.00,WeatherDisplay:10.37,2013-03-28 14:59:00,
2013-03-28 15:14:00,40.5,22.8,30.15,East,93,9.0,12.0,49,0.00,CLR,,0.00,WeatherDisplay:10.37,2013-03-28 15:14:00,
2013-03-28 15:29:00,40.1,22.4,30.15,East,96,7.0,12.0,49,0.00,CLR,,0.00,WeatherDisplay:10.37,2013-03-28 15:29:00,
2013-03-28 15:44:00,39.9,22.3,30.15,East,90,6.0,14.0,49,0.00,CLR,,0.00,WeatherDisplay:10.37,2013-03-28 15:44:00,
2013-03-28 15:59:00,39.4,21.8,30.15,East,99,8.0,14.0,49,0.00,CLR,,0.00,WeatherDisplay:10.37,2013-03-28 15:59:00,
2013-03-28 16:14:00,39.6,22.0,30.15,ESE,106,5.0,12.0,49,0.00,CLR,,0.00,WeatherDisplay:10.37,2013-03-28 16:14:00,
2013-03-28 16:29:00,39.9,22.3,30.15,ENE,77,8.0,8.0,49,0.00,CLR,,0.00,WeatherDisplay:10.37,2013-03-28 16:29:00,
2013-03-28 16:44:00,39.2,21.6,30.15,East,88,10.0,13.0,49,0.00,CLR,,0.00,WeatherDisplay:10.37,2013-03-28 16:44:00,
2013-03-28 16:59:00,38.5,21.0,30.15,SE,129,3.0,10.0,49,0.00,CLR,,0.00,WeatherDisplay:10.37,2013-03-28 16:59:00,
2013-03-28 17:14:00,38.5,21.4,30.15,ENE,73,6.0,6.0,50,0.00,CLR,,0.00,WeatherDisplay:10.37,2013-03-28 17:14:00,
2013-03-28 17:29:00,38.7,21.6,30.15,East,98,7.0,8.0,50,0.00,CLR,,0.00,WeatherDisplay:10.37,2013-03-28 17:29:00,
2013-03-28 17:44:00,38.3,21.3,30.15,East,91,5.0,8.0,50,0.00,CLR,,0.00,WeatherDisplay:10.37,2013-03-28 17:44:00,
2013-03-28 17:59:00,37.9,20.9,30.15,ENE,73,6.0,8.0,50,0.00,CLR,,0.00,WeatherDisplay:10.37,2013-03-28 17:59:00,
2013-03-28 18:14:00,37.6,20.6,30.15,East,87,2.0,6.0,50,0.00,CLR,,0.00,WeatherDisplay:10.37,2013-03-28 18:14:00,
2013-03-28 18:29:00,37.0,20.6,30.15,East,94,3.0,7.0,51,0.00,CLR,,0.00,WeatherDisplay:10.37,2013-03-28 18:29:00,
2013-03-28 18:44:00,36.7,20.2,30.18,East,84,2.0,4.0,51,0.00,CLR,,0.00,WeatherDisplay:10.37,2013-03-28 18:44:00,
2013-03-28 18:59:00,36.1,19.7,30.18,East,93,2.0,5.0,51,0.00,CLR,,0.00,WeatherDisplay:10.37,2013-03-28 18:59:00,
2013-03-28 19:14:00,35.8,19.9,30.15,East,90,2.0,3.0,52,0.00,CLR,,0.00,WeatherDisplay:10.37,2013-03-28 19:14:00,
2013-03-28 19:29:00,35.5,19.6,30.15,ENE,77,3.0,5.0,52,0.00,CLR,,0.00,WeatherDisplay:10.37,2013-03-28 19:29:00,
2013-03-28 19:44:00,35.1,19.6,30.15,NE,45,3.0,5.0,53,0.00,CLR,,0.00,WeatherDisplay:10.37,2013-03-28 19:44:00,
2013-03-28 19:59:00,34.7,19.3,30.15,ENE,73,5.0,5.0,53,0.00,CLR,,0.00,WeatherDisplay:10.37,2013-03-28 19:59:00,
2013-03-28 20:14:00,34.3,19.4,30.15,NE,51,3.0,6.0,54,0.00,CLR,,0.00,WeatherDisplay:10.37,2013-03-28 20:14:00,
2013-03-28 20:29:00,34.1,19.6,30.15,NNE,31,6.0,6.0,55,0.00,CLR,,0.00,WeatherDisplay:10.37,2013-03-28 20:29:00,
2013-03-28 20:44:00,34.0,19.9,30.15,NE,46,2.0,6.0,56,0.00,CLR,,0.00,WeatherDisplay:10.37,2013-03-28 20:44:00,
2013-03-28 20:59:00,33.6,20.0,30.15,ENE,64,2.0,4.0,57,0.00,CLR,,0.00,WeatherDisplay:10.37,2013-03-28 20:59:00,
2013-03-28 21:14:00,33.3,20.1,30.15,NE,45,5.0,5.0,58,0.00,CLR,,0.00,WeatherDisplay:10.37,2013-03-28 21:14:00,
2013-03-28 21:29:00,33.1,20.7,30.15,NE,36,5.0,5.0,60,0.00,CLR,,0.00,WeatherDisplay:10.37,2013-03-28 21:29:00,
2013-03-28 21:44:00,33.1,21.1,30.15,NE,38,5.0,5.0,61,0.00,CLR,,0.00,WeatherDisplay:10.37,2013-03-28 21:44:00,
2013-03-28 21:59:00,32.7,21.1,30.15,NE,45,0.0,5.0,62,0.00,CLR,,0.00,WeatherDisplay:10.37,2013-03-28 21:59:00,
2013-03-28 22:14:00,32.5,21.3,30.15,NE,42,2.0,4.0,63,0.00,CLR,,0.00,WeatherDisplay:10.37,2013-03-28 22:14:00,
2013-03-28 22:29:00,32.5,21.7,30.15,NNE,23,1.0,2.0,64,0.00,CLR,,0.00,WeatherDisplay:10.37,2013-03-28 22:29:00,
2013-03-28 22:44:00,32.4,21.9,30.15,ENE,63,6.0,6.0,65,0.00,CLR,,0.00,WeatherDisplay:10.37,2013-03-28 22:44:00,
2013-03-28 22:59:00,32.4,22.6,30.15,NE,37,6.0,7.0,67,0.00,CLR,,0.00,WeatherDisplay:10.37,2013-03-28 22:59:00,
2013-03-28 23:14:00,32.5,23.1,30.12,NE,47,6.0,7.0,68,0.00,CLR,,0.00,WeatherDisplay:10.37,2013-03-28 23:14:00,
2013-03-28 23:29:00,32.7,23.3,30.12,NE,45,0.0,2.0,68,0.00,CLR,,0.00,WeatherDisplay:10.37,2013-03-28 23:29:00,
2013-03-28 23:44:00,32.7,23.7,30.12,NNE,21,0.0,3.0,69,0.00,CLR,,0.00,WeatherDisplay:10.37,2013-03-28 23:44:00,
2013-03-28 23:59:00,32.8,23.7,30.12,NNE,29,2.0,3.0,69,0.00,CLR,,0.00,WeatherDisplay:10.37,2013-03-28 23:59:00,